TimeCST,TemperatureF,Dew PointF,Humidity,Sea Level PressureIn,VisibilityMPH,Wind Direction,Wind SpeedMPH,Gust SpeedMPH,PrecipitationIn,Events,Conditions,WindDirDegrees,DateUTC
12:15 AM,21.2,19.4,93,30.21,8.0,Calm,Calm,-,N/A,,Clear,0,2013-02-08 06:15:00
12:55 AM,21.2,19.4,93,30.21,5.0,East,3.5,-,N/A,,Clear,80,2013-02-08 06:55:00
1:15 AM,21.2,19.4,93,30.21,4.0,East,4.6,-,N/A,,Clear,90,2013-02-08 07:15:00
1:35 AM,19.4,19.4,100,30.21,4.0,East,4.6,-,N/A,,Clear,100,2013-02-08 07:35:00
1:55 AM,19.4,17.6,93,30.21,3.0,East,4.6,-,N/A,,Clear,90,2013-02-08 07:55:00
2:15 AM,19.4,17.6,93,30.22,5.0,ENE,4.6,-,N/A,,Scattered Clouds,70,2013-02-08 08:15:00
2:35 AM,21.2,19.4,93,30.22,5.0,East,4.6,-,N/A,,Overcast,80,2013-02-08 08:35:00
2:55 AM,23.0,23.0,100,30.22,0.5,ESE,6.9,-,N/A,,Overcast,110,2013-02-08 08:55:00
3:15 AM,23.0,21.2,93,30.21,0.2,ESE,6.9,-,N/A,,Overcast,120,2013-02-08 09:15:00
3:35 AM,23.0,21.2,93,30.21,0.2,ESE,6.9,-,N/A,,Overcast,110,2013-02-08 09:35:00
3:55 AM,24.8,21.2,86,30.21,0.2,SE,5.8,-,N/A,,Overcast,130,2013-02-08 09:55:00
4:15 AM,24.8,23.0,93,30.21,0.2,SE,6.9,-,N/A,,Overcast,140,2013-02-08 10:15:00
4:35 AM,23.0,21.2,93,30.21,0.2,SE,6.9,-,N/A,,Overcast,130,2013-02-08 10:35:00
4:55 AM,23.0,23.0,100,30.21,0.2,SE,6.9,-,N/A,,Overcast,130,2013-02-08 10:55:00
5:15 AM,23.0,21.2,93,30.22,0.2,SSE,8.1,-,N/A,,Overcast,150,2013-02-08 11:15:00
5:35 AM,23.0,21.2,93,30.21,0.2,SE,6.9,-,N/A,,Overcast,140,2013-02-08 11:35:00
5:55 AM,23.0,21.2,93,30.21,0.2,SE,8.1,-,N/A,,Overcast,130,2013-02-08 11:55:00
6:15 AM,23.0,21.2,93,30.21,0.2,SSE,6.9,-,N/A,,Overcast,150,2013-02-08 12:15:00
6:35 AM,23.0,21.2,93,30.21,0.5,SE,8.1,-,N/A,,Overcast,130,2013-02-08 12:35:00
6:55 AM,23.0,21.2,93,30.21,0.5,SE,8.1,-,N/A,,Overcast,130,2013-02-08 12:55:00
7:15 AM,23.0,21.2,93,30.20,0.5,SE,9.2,-,N/A,,Overcast,130,2013-02-08 13:15:00
7:35 AM,23.0,21.2,93,30.20,0.2,ESE,8.1,-,N/A,,Overcast,120,2013-02-08 13:35:00
7:55 AM,23.0,21.2,93,30.20,0.2,SE,8.1,-,N/A,,Overcast,130,2013-02-08 13:55:00
8:15 AM,23.0,21.2,93,30.20,0.2,SE,10.4,-,N/A,,Overcast,130,2013-02-08 14:15:00
8:35 AM,23.0,21.2,93,30.20,0.2,SE,10.4,-,N/A,,Overcast,130,2013-02-08 14:35:00
8:55 AM,24.8,23.0,93,30.20,0.2,SE,9.2,-,N/A,,Overcast,140,2013-02-08 14:55:00
9:15 AM,24.8,23.0,93,30.22,0.2,SSE,8.1,-,N/A,,Overcast,150,2013-02-08 15:15:00
9:35 AM,24.8,24.8,100,30.22,0.2,SE,10.4,-,N/A,,Overcast,140,2013-02-08 15:35:00
9:55 AM,26.6,24.8,93,30.21,0.2,SE,11.5,-,N/A,,Overcast,130,2013-02-08 15:55:00
10:15 AM,26.6,24.8,93,30.21,1.0,SSE,12.7,-,N/A,,Overcast,160,2013-02-08 16:15:00
10:35 AM,26.6,26.6,100,30.22,1.5,SSE,11.5,-,N/A,,Overcast,150,2013-02-08 16:35:00
10:55 AM,28.4,26.6,93,30.21,3.0,SSE,12.7,-,N/A,,Overcast,150,2013-02-08 16:55:00
11:15 AM,28.4,28.4,100,30.20,6.0,SSE,15.0,-,N/A,,Overcast,150,2013-02-08 17:15:00
11:35 AM,30.2,28.4,93,30.19,8.0,SE,13.8,-,N/A,,Overcast,140,2013-02-08 17:35:00
11:55 AM,30.2,30.2,100,30.18,10.0,SE,13.8,-,N/A,,Overcast,130,2013-02-08 17:55:00
12:15 PM,30.2,28.4,93,30.17,10.0,SE,13.8,-,N/A,,Overcast,130,2013-02-08 18:15:00
12:35 PM,32.0,30.2,93,30.16,10.0,SE,13.8,-,N/A,,Mostly Cloudy,130,2013-02-08 18:35:00
12:55 PM,33.8,30.2,87,30.15,10.0,SE,17.3,-,N/A,,Scattered Clouds,140,2013-02-08 18:55:00
1:15 PM,35.6,30.2,81,30.13,10.0,SE,17.3,-,N/A,,Clear,140,2013-02-08 19:15:00
1:35 PM,37.4,28.4,70,30.12,10.0,SE,17.3,25.3,N/A,,Clear,140,2013-02-08 19:35:00
1:55 PM,37.4,28.4,70,30.10,10.0,SE,19.6,26.5,N/A,,Clear,140,2013-02-08 19:55:00
2:15 PM,39.2,28.4,65,30.09,10.0,SE,19.6,-,N/A,,Clear,140,2013-02-08 20:15:00
2:35 PM,39.2,28.4,65,30.09,10.0,SSE,23.0,26.5,N/A,,Clear,150,2013-02-08 20:35:00
2:55 PM,41.0,28.4,61,30.07,10.0,SE,21.9,-,N/A,,Clear,140,2013-02-08 20:55:00
3:15 PM,41.0,28.4,61,30.06,10.0,SE,21.9,26.5,N/A,,Clear,140,2013-02-08 21:15:00
3:35 PM,39.2,26.6,61,30.05,10.0,SSE,19.6,27.6,N/A,,Clear,150,2013-02-08 21:35:00
3:55 PM,39.2,26.6,61,30.04,10.0,SSE,20.7,28.8,N/A,,Clear,150,2013-02-08 21:55:00
4:15 PM,37.4,26.6,65,30.03,10.0,SE,23.0,27.6,N/A,,Clear,140,2013-02-08 22:15:00
4:35 PM,37.4,28.4,70,30.04,10.0,SE,18.4,24.2,N/A,,Clear,140,2013-02-08 22:35:00
4:55 PM,37.4,26.6,65,30.02,10.0,SE,19.6,27.6,N/A,,Clear,140,2013-02-08 22:55:00
5:15 PM,37.4,26.6,65,30.02,10.0,SE,18.4,-,N/A,,Clear,140,2013-02-08 23:15:00
5:35 PM,37.4,28.4,70,30.02,10.0,SE,17.3,23.0,N/A,,Clear,140,2013-02-08 23:35:00
5:55 PM,35.6,26.6,70,30.01,10.0,SE,15.0,18.4,N/A,,Clear,130,2013-02-08 23:55:00
6:15 PM,35.6,26.6,70,30.00,10.0,SE,16.1,20.7,N/A,,Clear,140,2013-02-09 00:15:00
6:35 PM,33.8,26.6,75,30.00,10.0,SE,15.0,20.7,N/A,,Clear,140,2013-02-09 00:35:00
6:55 PM,33.8,26.6,75,29.99,10.0,SE,13.8,-,N/A,,Clear,140,2013-02-09 00:55:00
7:15 PM,33.8,26.6,75,29.99,10.0,SSE,18.4,26.5,N/A,,Clear,150,2013-02-09 01:15:00
7:35 PM,33.8,26.6,75,29.99,10.0,SE,16.1,21.9,N/A,,Clear,140,2013-02-09 01:35:00
7:55 PM,33.8,26.6,75,29.99,10.0,SE,18.4,-,N/A,,Clear,140,2013-02-09 01:55:00
8:15 PM,32.0,26.6,80,29.99,10.0,SE,17.3,-,N/A,,Clear,140,2013-02-09 02:15:00
8:35 PM,32.0,26.6,80,29.99,10.0,SE,18.4,25.3,N/A,,Clear,140,2013-02-09 02:35:00
8:55 PM,32.0,26.6,80,29.99,10.0,SSE,16.1,-,N/A,,Clear,150,2013-02-09 02:55:00
9:15 PM,30.2,26.6,86,29.99,10.0,SE,16.1,-,N/A,,Clear,140,2013-02-09 03:15:00
9:35 PM,30.2,26.6,86,29.99,10.0,SE,12.7,-,N/A,,Clear,140,2013-02-09 03:35:00
9:55 PM,30.2,26.6,86,29.99,10.0,SE,13.8,-,N/A,,Clear,140,2013-02-09 03:55:00
10:15 PM,30.2,26.6,86,29.99,10.0,SE,15.0,19.6,N/A,,Clear,130,2013-02-09 04:15:00
10:35 PM,30.2,26.6,86,29.98,9.0,SE,13.8,-,N/A,,Clear,130,2013-02-09 04:35:00
10:55 PM,30.2,26.6,86,29.98,8.0,SE,12.7,-,N/A,,Clear,140,2013-02-09 04:55:00
11:15 PM,30.2,26.6,86,29.97,8.0,SE,15.0,-,N/A,,Clear,140,2013-02-09 05:15:00
11:35 PM,32.0,26.6,80,29.97,10.0,SE,16.1,-,N/A,,Clear,140,2013-02-09 05:35:00
11:55 PM,32.0,26.6,80,29.96,10.0,SE,20.7,-,N/A,,Clear,140,2013-02-09 05:55:00